Weather History for Rome Urbe AFB, Italy

Change the Weather History Date:

Wednesday, August 21, 2013

  Actual Average Record
Temperature  
Mean Temperature 78 °F -  
Max Temperature 91 °F 84 °F 102 °F (2003)
Min Temperature 64 °F 59 °F 55 °F (2008)
Cooling Degree Days 12    
Growing Degree Days 28 (Base 50)    
Moisture  
Dew Point 63 °F    
Average Humidity 60    
Maximum Humidity 94    
Minimum Humidity 38    
Precipitation  
Precipitation 0.00 in 0.08 in - ()
Sea Level Pressure  
Sea Level Pressure 29.95 in    
Wind  
Wind Speed 4 mph ()    
Max Wind Speed 22 mph    
Max Gust Speed -    
Visibility 6.2 miles    
Events Rain , Thunderstorm    
Averages and records for this station are not official NWS values.
T = Trace of Precipitation, MM = Missing Value Source: Averaged Metar Reports

Daily Weather History Graph

Daily Weather History Graph

Search for Another Location

Airport:

Trip Planner

Search our weather history database for the weather conditions in past years. The results will help you decide how hot, cold, wet, or windy it might be!

Date:

Astronomy

Aug. 21, 2013 Rise Set
Actual Time 6:24 AM CEST 8:01 PM CEST
Civil Twilight 5:54 AM CEST 8:30 PM CEST
Nautical Twilight 5:18 AM CEST 9:06 PM CEST
Astronomical Twilight 4:40 AM CEST 9:44 PM CEST
Moon 7:57 PM CEST (8/21) 6:45 AM CEST (8/21)
Length of Visible Light 14h 36m
Length of Day
13h 37m
Full, 100% of the Moon is Illuminated
Aug 21
Full
Aug 28
Last Quarter
Sep 5
New
Sep 12
First Quarter
Sep 19
Full

Hourly Weather History & Observations

Time (CEST) Temp. Heat Index Dew Point Humidity Pressure Visibility Wind Dir Wind Speed Gust Speed Precip Events Conditions
7:22 AM 64.4 °F - 62.6 °F 94% 29.98 in - Calm Calm - N/A   Clear
7:50 AM 66.2 °F - 64.4 °F 94% 29.95 in - Calm Calm - N/A   Clear
8:50 AM 73.4 °F - 64.4 °F 73% 29.98 in - North 4.6 mph - N/A   Clear
9:50 AM 78.8 °F - 62.6 °F 57% 29.98 in - NNE 5.8 mph - N/A   Clear
10:50 AM 82.4 °F 83.9 °F 64.4 °F 54% 29.98 in - North 6.9 mph - N/A   Clear
11:50 AM 84.2 °F 85.0 °F 62.6 °F 48% 29.98 in - Variable 3.5 mph - N/A   Clear
12:50 PM 87.8 °F 87.6 °F 60.8 °F 40% 29.95 in - Variable 3.5 mph - N/A   Clear
1:50 PM 89.6 °F 89.5 °F 60.8 °F 38% 29.95 in 6.2 mi NNE 5.8 mph - N/A   Partly Cloudy
2:50 PM 89.6 °F 89.5 °F 60.8 °F 38% 29.92 in 6.2 mi Variable 2.3 mph - N/A   Scattered Clouds
3:50 PM 91.4 °F 92.1 °F 62.6 °F 38% 29.92 in 6.2 mi Variable 3.5 mph - N/A   Scattered Clouds
3:54 PM 87.8 °F 88.5 °F 62.6 °F 43% 29.92 in 6.2 mi NNE 11.5 mph - N/A Thunderstorm Scattered Clouds
3:56 PM 87.8 °F 87.6 °F 60.8 °F 40% 29.92 in 6.2 mi NNE 13.8 mph - N/A Thunderstorm Scattered Clouds
4:11 PM 82.4 °F 83.9 °F 64.4 °F 54% 29.92 in 6.2 mi ENE 21.9 mph - N/A Rain , Thunderstorm Heavy Thunderstorms and Rain
4:50 PM 75.2 °F - 64.4 °F 69% 29.92 in 6.2 mi NNE 4.6 mph - N/A Thunderstorm Scattered Clouds
5:50 PM 73.4 °F - 62.6 °F 69% 29.92 in 6.2 mi NW 6.9 mph - N/A   Mostly Cloudy
6:50 PM 75.2 °F - 62.6 °F 65% 29.95 in 6.2 mi Variable 3.5 mph - N/A   Scattered Clouds
7:50 PM 73.4 °F - 64.4 °F 73% 29.95 in 6.2 mi Variable 1.2 mph - N/A   Scattered Clouds
8:50 PM 71.6 °F - 64.4 °F 78% 29.95 in - Variable 1.2 mph - N/A   Clear
9:50 PM 69.8 °F - 64.4 °F 83% 29.98 in - Variable 2.3 mph - N/A   Clear